Location: Champignolles
(47.0543°N, 4.5663°E)
Time: 13:40:33
(UTC+00:00)

MOS 1 Rocket - Visible Passes

Search period start: 20 April 2021 00:00
Search period end: 30 April 2021 00:00
Orbit: 615 x 829 km, 97.4° (Epoch: 19 April)

Date Brightness Start Highest point End Pass type
(mag) Time Alt. Az. Time Alt. Az. Time Alt. Az.
20 Apr 6.2 03:12:05 10° ESE 03:16:17 24° ENE 03:20:29 10° NNE visible
21 Apr 7.2 02:27:23 10° ENE 02:27:45 10° NE 02:28:06 10° NE visible
21 Apr 4.6 03:59:34 10° SSE 04:04:52 55° ENE 04:10:07 10° N visible
21 Apr 7.0 19:18:07 10° NNW 19:19:56 12° NW 19:21:44 10° WNW visible
22 Apr 6.2 03:11:44 10° ESE 03:15:58 24° ENE 03:20:09 10° NNE visible
23 Apr 7.2 02:27:02 10° ENE 02:27:25 10° NE 02:27:49 10° NE visible
23 Apr 4.5 03:59:16 10° SSE 04:04:33 56° ENE 04:09:48 10° N visible
23 Apr 7.0 19:17:57 10° NW 19:19:35 12° NW 19:21:10 10° WNW visible
24 Apr 6.2 03:11:26 10° ESE 03:15:39 24° ENE 03:19:50 10° NNE visible
25 Apr 7.2 02:26:44 10° ENE 02:27:05 10° NE 02:27:27 10° NE visible
25 Apr 4.5 03:58:57 10° SSE 04:04:14 56° ENE 04:09:27 10° N visible
25 Apr 7.1 19:17:47 10° NW 19:19:12 11° NW 19:20:36 10° WNW visible
26 Apr 6.2 03:11:07 10° ESE 03:15:19 24° ENE 03:19:28 10° NNE visible
27 Apr 7.2 02:26:31 10° NE 02:26:45 10° NE 02:26:58 10° NE visible
28 Apr 6.2 03:10:48 10° ESE 03:15:00 24° ENE 03:19:07 10° NNE visible
